This demonstration page uses our WeatherBlox Daily Observations layout. Learn more.

Left ArrowRight Arrow

39.92423, -83.80882

Hourly Observations for January 18, 2020

Temp ( °F °C ) Dew Point ( °F °C ) Humidity (%) Winds ( mph kmh ) Pressure ( in mb ) Visibility ( mi km ) Precip ( " mm )
12:56 am 00:56 Cloudy 29 -1.7 25 -3.9 85 85 E 15 24 30.35 1028 10 16.0934 0.001 0.001
1:56 am 01:56 Cloudy with Light Snow 29 -1.7 25 -3.9 85 85 ESE 18 30 30.29 1026 9 14.48406 0.001 0.001
2:56 am 02:56 Cloudy with Light Snow 30 -1.1 27 -2.8 88 88 SE 13 20 30.26 1025 9 14.48406 0.001 0.001
3:56 am 03:56 Cloudy with Light Snow 30 -1.1 28 -2.2 92 92 SE 16 26 30.21 1023 9 14.48406 0.01 0.254
4:56 am 04:56 Cloudy with Light Snow 31 -0.6 30 -1.1 96 96 SE 15 24 30.16 1021 7 11.26538 0.06 1.524
5:56 am 05:56 Cloudy with Light Snow 32 0 31 -0.6 96 96 SE 14 22 30.12 1020 6 9.65604 0.11 2.794
6:13 am 06:13 Cloudy with Freezing Rain 32 0 32 0 100 100 SE 15 24 30.11 1020 8 12.87472 0.03 0.762
6:16 am 06:16 Cloudy with Freezing Rain 32 0 32 0 100 100 SSE 14 22 30.11 1020 10 16.0934 0.03 0.762
6:23 am 06:23 Cloudy with Light Freezing Rain 32 0 32 0 100 100 SE 15 24 30.1 1019 10 16.0934 0.04 1.016
6:56 am 06:56 Cloudy with Light Freezing Rain 32 0 32 0 100 100 SE 14 22 30.06 1018 10 16.0934 0.06 1.524
7:56 am 07:56 Cloudy with Light Freezing Rain 33 0.6 32 0 96 96 SSE 14 22 30 1016 10 16.0934 0.08 2.032
8:09 am 08:09 Cloudy with Light Rain 34 1 32 0 93 93 SSE 18 30 30 1016 10 16.0934 0.02 0.508
8:56 am 08:56 Cloudy with Light Snow 34 1.1 33 0.6 97 97 S 12 19 29.97 1015 2 3.21868 0.16 4.064
9:03 am 09:03 Cloudy with Light Snow 34 1 34 1 100 100 SSE 10 17 29.98 1015 1.75 2.816345 0.18 4.572
9:13 am 09:13 Cloudy with Light Snow 34 1 34 1 100 100 SSE 14 22 29.97 1015 2.5 4.02335 0.27 6.858
9:31 am 09:31 Cloudy with Light Snow 34 1 34 1 100 100 WNW 8 13 30.02 1017 1.75 2.816345 0.28 7.112
9:52 am 09:52 Cloudy with Light Snow 34 1 34 1 100 100 SSE 9 15 29.98 1015 2.5 4.02335 0.28 7.112
9:56 am 09:56 Cloudy with Light Snow 33 0.6 33 0.6 100 100 SE 9 15 29.96 1014 2.5 4.02335 0.28 7.112
10:07 am 10:07 Cloudy with Light Snow 34 1 34 1 100 100 SSE 6 9 29.97 1015 1.5 2.41401 0.001 0.001
10:24 am 10:24 Cloudy with Light Snow 34 1 34 1 100 100 SSE 9 15 29.96 1015 3 4.82802 0.001 0.001
10:56 am 10:56 Cloudy with Light Rain 34 1.1 34 1.1 100 100 S 6 9 29.93 1014 7 11.26538 0.001 0.001
11:08 am 11:08 Cloudy with Light Rain 34 1 34 1 100 100 S 6 9 29.94 1014 8 12.87472 0.001 0.001
11:31 am 11:31 Cloudy with Light Rain 36 2 36 2 100 100 S 10 17 29.91 1013 8 12.87472 0.001 0.001
11:35 am 11:35 Cloudy with Light Rain 36 2 36 2 100 100 S 9 15 29.9 1013 8 12.87472 0.001 0.001
11:56 am 11:56 Cloudy with Light Rain 36 2.2 36 2.2 100 100 S 13 20 29.87 1012 10 16.0934 0.001 0.001
12:56 pm 12:56 Cloudy with Light Rain 42 5.6 42 5.6 100 100 SSW 17 28 29.8 1009 7 11.26538 0.001 0.001
1:34 pm 13:34 Cloudy with Light Rain 45 7 45 7 100 100 SSW 20 31 29.77 1008 10 16.0934 0.001 0.001
1:56 pm 13:56 Cloudy with Light Rain 45 7.2 45 7.2 100 100 SW 22 35 29.76 1008 10 16.0934 0.001 0.001
2:42 pm 14:42 Cloudy with Light Rain 46 8 46 8 100 100 SW 22 35 29.74 1007 10 16.0934 0.01 0.254
2:56 pm 14:56 Cloudy 47 8.3 47 8.3 100 100 SW 25 41 29.74 1007 10 16.0934 0.01 0.254
3:56 pm 15:56 Cloudy with Light Rain 45 7.2 45 7.2 100 100 W 32 52 29.78 1009 7 11.26538 0.001 0.001
4:18 pm 16:18 Cloudy 45 7 43 6 93 93 W 29 46 29.8 1009 10 16.0934 0.001 0.001
4:56 pm 16:56 Cloudy 41 5 41 5 100 100 W 22 35 29.83 1010 10 16.0934 0.001 0.001
5:56 pm 17:56 Cloudy 40 4.4 36 2.2 86 86 W 24 39 29.87 1011 10 16.0934 0 0
6:56 pm 18:56 Cloudy 38 3.3 34 1.1 86 86 W 21 33 29.88 1012 10 16.0934 0.01 0.254
7:56 pm 19:56 Cloudy with Light Rain 37 2.8 35 1.7 93 93 W 20 31 29.87 1012 7 11.26538 0.001 0.001
8:56 pm 20:56 Cloudy 36 2.2 33 0.6 89 89 W 22 35 29.88 1012 10 16.0934 0.01 0.254
9:16 pm 21:16 Cloudy with Light Rain 34 1 30 -1 87 87 W 35 56 29.89 1012 10 16.0934 0.01 0.254
9:56 pm 21:56 Cloudy 31 -0.6 28 -2.2 89 89 W 25 41 29.91 1013 10 16.0934 0.05 1.27
10:33 pm 22:33 Cloudy 30 -1 27 -3 86 86 W 24 39 29.94 1014 10 16.0934 0.26 6.604
10:56 pm 22:56 Cloudy 29 -1.7 25 -3.9 85 85 WSW 29 46 29.92 1013 10 16.0934 0.26 6.604
11:56 pm 23:56 Windy with Snow Likely 27 -2.8 24 -4.4 89 89 W 21 33 29.96 1015 9 14.48406 0.001 0.001

Powered by AerisWeather